Location: Benque
(43.2594°N, 0.9178°E)
Time: 03:50:27
(UTC+00:00)

USA 238 - Pass Details

Date: 24 January 2020
Orbit: 1023 x 1189 km, 63.4° (Epoch: 10 February)

Event Time Altitude Azimuth Distance (km) Brightness Sun altitude
Rises 19:21:05 0° 196° (SSW) 3,755 6.8 -26.1°
Reaches altitude 10° 19:23:44 10° 191° (SSW) 2,814 6.0 -26.6°
Enters shadow 19:28:47 45° 152° (SSE) 1,388 4.0 -27.5°
